TimeCST,TemperatureF,Dew PointF,Humidity,Sea Level PressureIn,VisibilityMPH,Wind Direction,Wind SpeedMPH,Gust SpeedMPH,PrecipitationIn,Events,Conditions,WindDirDegrees,DateUTC
12:15 AM,14.0,10.4,86,30.06,5.0,NW,4.6,-,N/A,Snow,Light Snow,310,2012-12-29 06:15:00
12:35 AM,14.0,10.4,86,30.06,4.0,WNW,4.6,-,N/A,Snow,Light Snow,300,2012-12-29 06:35:00
12:56 AM,14.0,10.4,86,30.06,5.0,WNW,6.9,-,N/A,Snow,Light Snow,300,2012-12-29 06:56:00
1:15 AM,14.0,10.4,86,30.06,5.0,WNW,5.8,-,N/A,Snow,Light Snow,300,2012-12-29 07:15:00
1:35 AM,14.0,10.4,86,30.06,4.0,WNW,6.9,-,N/A,Snow,Light Snow,300,2012-12-29 07:35:00
1:55 AM,14.0,10.4,86,30.06,4.0,WNW,6.9,-,N/A,Snow,Light Snow,300,2012-12-29 07:55:00
2:15 AM,14.0,10.4,86,30.06,3.0,NW,8.1,-,N/A,Snow,Light Snow,310,2012-12-29 08:15:00
2:36 AM,14.0,10.4,86,30.06,2.5,WNW,6.9,-,N/A,Snow,Light Snow,300,2012-12-29 08:36:00
2:55 AM,12.2,10.4,92,30.07,3.0,NW,4.6,-,N/A,Snow,Light Snow,310,2012-12-29 08:55:00
3:15 AM,12.2,10.4,92,30.06,2.5,Calm,Calm,-,N/A,Snow,Light Snow,0,2012-12-29 09:15:00
3:36 AM,12.2,8.6,85,30.06,7.0,West,4.6,-,N/A,Snow,Light Snow,260,2012-12-29 09:36:00
3:55 AM,12.2,8.6,85,30.08,7.0,West,5.8,-,N/A,Snow,Light Snow,280,2012-12-29 09:55:00
4:15 AM,12.2,8.6,85,30.09,4.0,WNW,9.2,-,N/A,Snow,Light Snow,290,2012-12-29 10:15:00
4:36 AM,10.4,6.8,85,30.08,3.0,WNW,6.9,-,N/A,Snow,Light Snow,290,2012-12-29 10:36:00
4:55 AM,10.4,6.8,85,30.08,3.0,West,5.8,-,N/A,Snow,Light Snow,280,2012-12-29 10:55:00
5:15 AM,10.4,6.8,85,30.08,3.0,West,4.6,-,N/A,Snow,Light Snow,280,2012-12-29 11:15:00
5:36 AM,10.4,6.8,85,30.09,3.0,WNW,3.5,-,N/A,Snow,Light Snow,290,2012-12-29 11:36:00
6:15 AM,10.4,6.8,85,30.08,3.0,West,4.6,-,N/A,Snow,Light Snow,260,2012-12-29 12:15:00
6:35 AM,10.4,6.8,85,30.09,4.0,West,3.5,-,N/A,,Overcast,270,2012-12-29 12:35:00
6:55 AM,10.4,5.0,79,30.09,3.0,WSW,3.5,-,N/A,Snow,Light Snow,250,2012-12-29 12:55:00
7:16 AM,10.4,5.0,79,30.09,3.0,West,3.5,-,N/A,Snow,Light Snow,260,2012-12-29 13:16:00
7:35 AM,8.6,5.0,85,30.09,4.0,West,4.6,-,N/A,Snow,Light Snow,260,2012-12-29 13:35:00
7:55 AM,8.6,5.0,85,30.10,2.0,West,4.6,-,N/A,,Overcast,260,2012-12-29 13:55:00
8:16 AM,8.6,5.0,85,30.10,2.5,WSW,3.5,-,N/A,Snow,Light Snow,250,2012-12-29 14:16:00
8:35 AM,8.6,3.2,79,30.10,0.8,WSW,3.5,-,N/A,Snow,Light Snow,240,2012-12-29 14:35:00
8:55 AM,6.8,3.2,85,30.11,0.8,Calm,Calm,-,N/A,Snow,Light Snow,0,2012-12-29 14:55:00
9:16 AM,6.8,3.2,85,30.11,0.8,WSW,3.5,-,N/A,Snow,Light Snow,240,2012-12-29 15:16:00
9:35 AM,5.0,1.4,85,30.11,0.5,Calm,Calm,-,N/A,Snow,Light Snow,0,2012-12-29 15:35:00
9:55 AM,5.0,1.4,85,30.12,1.2,Calm,Calm,-,N/A,,Haze,0,2012-12-29 15:55:00
10:16 AM,5.0,1.4,85,30.12,4.0,Calm,Calm,-,N/A,Snow,Light Snow,0,2012-12-29 16:16:00
10:35 AM,5.0,1.4,85,30.12,4.0,Calm,Calm,-,N/A,Snow,Light Snow,0,2012-12-29 16:35:00
10:55 AM,5.0,1.4,85,30.11,3.0,Calm,Calm,-,N/A,Snow,Light Snow,0,2012-12-29 16:55:00
11:16 AM,6.8,3.2,85,30.12,3.0,Calm,Calm,-,N/A,Snow,Light Snow,0,2012-12-29 17:16:00
11:35 AM,8.6,3.2,79,30.11,2.0,Calm,Calm,-,N/A,Snow,Light Snow,0,2012-12-29 17:35:00
11:55 AM,8.6,3.2,79,30.10,1.5,West,3.5,-,N/A,Snow,Light Snow,270,2012-12-29 17:55:00
12:15 PM,8.6,5.0,85,30.10,1.5,West,3.5,-,N/A,Snow,Light Snow,260,2012-12-29 18:15:00
12:35 PM,8.6,5.0,85,30.10,1.8,WSW,5.8,-,N/A,Snow,Light Snow,240,2012-12-29 18:35:00
12:56 PM,8.6,5.0,85,30.10,2.5,WSW,5.8,-,N/A,Snow,Light Snow,240,2012-12-29 18:56:00
1:15 PM,8.6,5.0,85,30.09,1.2,SW,4.6,-,N/A,Snow,Light Snow,230,2012-12-29 19:15:00
1:35 PM,10.4,6.8,85,30.09,1.2,WSW,5.8,-,N/A,Snow,Light Snow,250,2012-12-29 19:35:00
1:56 PM,10.4,6.8,85,30.08,2.5,WSW,3.5,-,N/A,Snow,Light Snow,240,2012-12-29 19:56:00
2:15 PM,12.2,8.6,85,30.08,5.0,SW,3.5,-,N/A,Snow,Light Snow,230,2012-12-29 20:15:00
2:35 PM,12.2,8.6,85,30.09,2.0,SW,3.5,-,N/A,Snow,Light Snow,220,2012-12-29 20:35:00
2:56 PM,12.2,8.6,85,30.09,1.8,Calm,Calm,-,N/A,Snow,Light Snow,0,2012-12-29 20:56:00
3:15 PM,14.0,10.4,86,30.10,1.8,WSW,5.8,-,N/A,Snow,Light Snow,250,2012-12-29 21:15:00
3:35 PM,14.0,10.4,86,30.10,4.0,WSW,4.6,-,N/A,Snow,Light Snow,250,2012-12-29 21:35:00
3:56 PM,14.0,10.4,86,30.11,5.0,WSW,4.6,-,N/A,Snow,Light Snow,240,2012-12-29 21:56:00
4:15 PM,12.2,8.6,85,30.11,5.0,SW,4.6,-,N/A,,Scattered Clouds,230,2012-12-29 22:15:00
4:35 PM,6.8,3.2,85,30.11,5.0,WSW,4.6,-,N/A,,Clear,240,2012-12-29 22:35:00
4:55 PM,3.2,-0.4,85,30.11,5.0,Calm,Calm,-,N/A,,Clear,0,2012-12-29 22:55:00
5:15 PM,5.0,1.4,85,30.11,7.0,WSW,6.9,-,N/A,,Clear,240,2012-12-29 23:15:00
5:35 PM,3.2,-0.4,85,30.11,7.0,Calm,Calm,-,N/A,,Clear,0,2012-12-29 23:35:00
5:55 PM,3.2,-2.2,78,30.11,5.0,Calm,Calm,-,N/A,,Haze,0,2012-12-29 23:55:00
6:15 PM,3.2,-0.4,85,30.11,5.0,Calm,Calm,-,N/A,,Clear,0,2012-12-30 00:15:00
6:35 PM,1.4,-2.2,85,30.12,5.0,Calm,Calm,-,N/A,,Clear,0,2012-12-30 00:35:00
6:55 PM,3.2,-0.4,85,30.12,5.0,Calm,Calm,-,N/A,,Clear,0,2012-12-30 00:55:00
7:15 PM,3.2,-2.2,78,30.13,5.0,Calm,Calm,-,N/A,,Haze,0,2012-12-30 01:15:00
7:35 PM,1.4,-4.0,78,30.13,4.0,Calm,Calm,-,N/A,,Clear,0,2012-12-30 01:35:00
7:55 PM,-0.4,-5.8,78,30.14,4.0,Calm,Calm,-,N/A,,Haze,0,2012-12-30 01:55:00
8:15 PM,1.4,-4.0,78,30.14,5.0,Calm,Calm,-,N/A,,Clear,0,2012-12-30 02:15:00
8:36 PM,1.4,-4.0,78,30.14,5.0,Calm,Calm,-,N/A,,Haze,0,2012-12-30 02:36:00
8:55 PM,1.4,-2.2,85,30.14,7.0,Calm,Calm,-,N/A,,Clear,0,2012-12-30 02:55:00
9:15 PM,-0.4,-5.8,78,30.14,5.0,Calm,Calm,-,N/A,,Haze,0,2012-12-30 03:15:00
9:35 PM,-0.4,-4.0,85,30.14,5.0,Calm,Calm,-,N/A,,Clear,0,2012-12-30 03:35:00
9:55 PM,1.4,-4.0,78,30.14,7.0,Calm,Calm,-,N/A,,Clear,0,2012-12-30 03:55:00
10:16 PM,1.4,-4.0,78,30.14,5.0,Calm,Calm,-,N/A,,Clear,0,2012-12-30 04:16:00
10:35 PM,-2.2,-7.6,78,30.14,7.0,Calm,Calm,-,N/A,,Clear,0,2012-12-30 04:35:00
10:55 PM,-0.4,-5.8,78,30.15,7.0,Calm,Calm,-,N/A,,Clear,0,2012-12-30 04:55:00
11:16 PM,-0.4,-5.8,78,30.16,7.0,Calm,Calm,-,N/A,,Clear,0,2012-12-30 05:16:00
11:35 PM,-2.2,-7.6,78,30.15,7.0,Calm,Calm,-,N/A,,Clear,0,2012-12-30 05:35:00
11:55 PM,-2.2,-7.6,78,30.15,7.0,Calm,Calm,-,N/A,,Clear,0,2012-12-30 05:55:00